Weather History for Boscobel, WI

Change the Weather History Date:

Friday, April 5, 2013

  Actual Average (KPDC) Record (KPDC)
Temperature  
Mean Temperature 38 °F -  
Max Temperature 53 °F 54 °F 80 °F (1991)
Min Temperature 24 °F 31 °F 19 °F (1971)
Degree Days  
Heating Degree Days 27    
Moisture  
Dew Point 22 °F    
Average Humidity 54    
Maximum Humidity 88    
Minimum Humidity 26    
Precipitation  
Precipitation 0.00 in - - ()
Sea Level Pressure  
Sea Level Pressure 30.17 in    
Wind  
Wind Speed 2 mph (East)    
Max Wind Speed 9 mph    
Max Gust Speed -    
Visibility 9 miles    
Events      
Averages and records for this station are not official NWS values.
T = Trace of Precipitation, MM = Missing Value Source: NWS Daily Summary

Daily Weather History Graph

Daily Weather History Graph

Search for Another Location

Airport:

Trip Planner

Search our weather history database for the weather conditions in past years. The results will help you decide how hot, cold, wet, or windy it might be!

Date:

Astronomy

Apr. 05, 2013 Rise Set
Actual Time 6:37 AM CDT 7:34 PM CDT
Civil Twilight 6:08 AM CDT 8:03 PM CDT
Nautical Twilight 5:33 AM CDT 8:37 PM CDT
Astronomical Twilight 4:57 AM CDT 9:13 PM CDT
Moon 3:52 AM CDT (4/5) 2:51 PM CDT (4/5)
Length of Visible Light 13h 54m
Length of Day
12h 56m
Waning Crescent, 23% of the Moon is Illuminated
Apr 5
Waning Crescent
Apr 10
New
Apr 18
First Quarter
Apr 25
Full
May 2
Last Quarter

Hourly Weather History & Observations

Time (CDT) Temp. Windchill Dew Point Humidity Pressure Visibility Wind Dir Wind Speed Gust Speed Precip Events Conditions
12:53 AM 30.9 °F - 24.1 °F 76% 30.12 in 6.0 mi Calm Calm - N/A   Haze
1:53 AM 30.0 °F - 25.0 °F 82% 30.14 in 8.0 mi Calm Calm - N/A   Clear
2:06 AM 28.4 °F - 24.8 °F 86% 30.12 in 1.8 mi Calm Calm - N/A   Haze
2:16 AM 28.4 °F - 23.0 °F 80% 30.12 in 3.0 mi Calm Calm - N/A   Haze
2:53 AM 25.0 °F - 21.9 °F 88% 30.15 in 3.0 mi Calm Calm - N/A   Clear
3:53 AM 27.0 °F - 21.9 °F 81% 30.16 in 10.0 mi Calm Calm - N/A   Clear
4:53 AM 27.0 °F - 21.9 °F 81% 30.19 in 10.0 mi Calm Calm - N/A   Clear
5:53 AM 25.0 °F - 21.9 °F 88% 30.21 in 10.0 mi Calm Calm - N/A   Clear
6:53 AM 24.1 °F - 21.0 °F 88% 30.24 in 8.0 mi Calm Calm - N/A   Clear
7:53 AM 30.0 °F - 25.0 °F 82% 30.25 in 10.0 mi Calm Calm - N/A   Clear
8:53 AM 37.9 °F 35.5 °F 24.1 °F 57% 30.26 in 10.0 mi NE 3.5 mph - N/A   Clear
9:53 AM 42.1 °F 39.2 °F 21.0 °F 43% 30.26 in 10.0 mi Variable 4.6 mph - N/A   Clear
10:53 AM 45.0 °F - 18.0 °F 34% 30.26 in 10.0 mi Calm Calm - N/A   Clear
11:53 AM 46.9 °F - 17.1 °F 30% 30.25 in 10.0 mi East 8.1 mph - N/A   Clear
12:53 PM 48.9 °F - 18.0 °F 29% 30.22 in 10.0 mi Variable 5.8 mph - N/A   Clear
1:53 PM 51.1 °F - 17.1 °F 26% 30.20 in 10.0 mi Variable 4.6 mph - N/A   Clear
2:53 PM 52.0 °F - 19.9 °F 28% 30.17 in 10.0 mi Calm Calm - N/A   Clear
3:53 PM 51.1 °F - 17.1 °F 26% 30.16 in 10.0 mi Variable 4.6 mph - N/A   Mostly Cloudy
4:53 PM 51.1 °F - 19.0 °F 28% 30.16 in 10.0 mi Variable 4.6 mph - N/A   Overcast
5:53 PM 50.0 °F - 19.9 °F 31% 30.14 in 6.0 mi Calm Calm - N/A   Haze
6:53 PM 48.0 °F - 24.1 °F 39% 30.13 in 10.0 mi East 9.2 mph - N/A   Overcast
7:53 PM 46.9 °F - 23.0 °F 39% 30.10 in 10.0 mi East 4.6 mph - N/A   Unknown
8:53 PM 46.9 °F - 21.9 °F 37% 30.09 in 10.0 mi ESE 4.6 mph - N/A   Overcast
9:53 PM 46.9 °F - 23.0 °F 39% 30.08 in 10.0 mi Variable 4.6 mph - N/A   Overcast
10:53 PM 46.0 °F 41.9 °F 24.1 °F 42% 30.06 in 10.0 mi East 8.1 mph - N/A   Scattered Clouds
11:53 PM 44.1 °F 39.0 °F 28.0 °F 53% 30.07 in 10.0 mi East 9.2 mph - N/A   Partly Cloudy